contact:dominique.lefevre@mio.osupytheas.fr, maurice.libes@osupytheas.fr, didier.mallarino@osupytheas.fr
Project:EMSO http://www.emso-fr.org/EMSO-France
Depth: 2436.0 m
Title:EMSO Ligure Ouest : Data MII capteur OXYGEN
DateTime,Latitude,Longitude,Optode-Type,Optode_Serial,Oxygen,Saturation_Oxygen,Temperature
DateTime,Latitude,Longitude,Optode-Type,Optode_Serial,µmol.l-1,%,degC
2017-10-31T00:01:31,42.805,6.029,4330,1995,198.018,60.555,13.287
2017-10-31T00:04:31,42.805,6.029,4330,1995,197.828,60.496,13.287
2017-10-31T00:07:31,42.805,6.029,4330,1995,198.081,60.573,13.286
2017-10-31T00:10:31,42.805,6.029,4330,1995,197.961,60.538,13.287
2017-10-31T00:13:31,42.805,6.029,4330,1995,198.131,60.589,13.286
2017-10-31T00:16:31,42.805,6.029,4330,1995,198.111,60.583,13.286
2017-10-31T00:19:31,42.805,6.029,4330,1995,198.049,60.565,13.287
2017-10-31T00:22:31,42.805,6.029,4330,1995,198.087,60.578,13.288
2017-10-31T00:25:31,42.805,6.029,4330,1995,197.819,60.494,13.287
2017-10-31T00:28:31,42.805,6.029,4330,1995,198.030,60.558,13.286
2017-10-31T00:31:31,42.805,6.029,4330,1995,198.030,60.558,13.286
2017-10-31T00:34:31,42.805,6.029,4330,1995,198.050,60.565,13.287
2017-10-31T00:37:31,42.805,6.029,4330,1995,197.992,60.548,13.287
2017-10-31T00:40:31,42.805,6.029,4330,1995,197.875,60.511,13.287
2017-10-31T00:43:31,42.805,6.029,4330,1995,197.939,60.530,13.286
2017-10-31T00:46:31,42.805,6.029,4330,1995,197.894,60.519,13.288
2017-10-31T00:49:31,42.805,6.029,4330,1995,197.917,60.524,13.286
2017-10-31T00:52:31,42.805,6.029,4330,1995,197.967,60.539,13.287
2017-10-31T00:55:31,42.805,6.029,4330,1995,197.724,60.465,13.286
2017-10-31T00:58:31,42.805,6.029,4330,1995,197.862,60.507,13.287
2017-10-31T01:01:31,42.805,6.029,4330,1995,197.926,60.526,13.286
2017-10-31T01:04:31,42.805,6.029,4330,1995,197.902,60.519,13.286
2017-10-31T01:07:31,42.805,6.029,4330,1995,197.824,60.500,13.290
2017-10-31T01:10:31,42.805,6.029,4330,1995,197.740,60.470,13.287
2017-10-31T01:13:31,42.805,6.029,4330,1995,197.908,60.522,13.287
2017-10-31T01:16:31,42.805,6.029,4330,1995,197.891,60.516,13.287
2017-10-31T01:19:31,42.805,6.029,4330,1995,197.660,60.446,13.287
2017-10-31T01:22:31,42.805,6.029,4330,1995,197.724,60.466,13.287
2017-10-31T01:25:31,42.805,6.029,4330,1995,197.759,60.475,13.286
2017-10-31T01:28:31,42.805,6.029,4330,1995,197.734,60.468,13.287
2017-10-31T01:31:31,42.805,6.029,4330,1995,197.680,60.452,13.287
2017-10-31T01:34:31,42.805,6.029,4330,1995,197.659,60.445,13.287
2017-10-31T01:37:31,42.805,6.029,4330,1995,197.594,60.426,13.287
2017-10-31T01:40:31,42.805,6.029,4330,1995,197.570,60.418,13.286
2017-10-31T01:43:31,42.805,6.029,4330,1995,197.356,60.352,13.286
2017-10-31T01:46:31,42.805,6.029,4330,1995,197.250,60.320,13.287
2017-10-31T01:49:31,42.805,6.029,4330,1995,197.414,60.371,13.288
2017-10-31T01:52:31,42.805,6.029,4330,1995,197.136,60.286,13.287
2017-10-31T01:55:31,42.805,6.029,4330,1995,197.266,60.326,13.288
2017-10-31T01:58:31,42.805,6.029,4330,1995,197.161,60.293,13.287
2017-10-31T02:01:31,42.805,6.029,4330,1995,197.210,60.307,13.286
2017-10-31T02:04:31,42.805,6.029,4330,1995,197.572,60.418,13.286
2017-10-31T02:07:31,42.805,6.029,4330,1995,197.586,60.423,13.287
2017-10-31T02:10:31,42.805,6.029,4330,1995,197.546,60.411,13.287
2017-10-31T02:13:31,42.805,6.029,4330,1995,197.297,60.334,13.286
2017-10-31T02:16:31,42.805,6.029,4330,1995,197.113,60.278,13.287
2017-10-31T02:19:31,42.805,6.029,4330,1995,197.045,60.258,13.287
2017-10-31T02:22:31,42.805,6.029,4330,1995,197.031,60.253,13.287
2017-10-31T02:25:31,42.805,6.029,4330,1995,197.005,60.245,13.287
2017-10-31T02:28:31,42.805,6.029,4330,1995,196.872,60.205,13.287
2017-10-31T02:31:31,42.805,6.029,4330,1995,196.842,60.195,13.286
2017-10-31T02:34:31,42.805,6.029,4330,1995,196.718,60.158,13.287
2017-10-31T02:37:31,42.805,6.029,4330,1995,197.078,60.268,13.287
2017-10-31T02:40:31,42.805,6.029,4330,1995,197.041,60.257,13.287
2017-10-31T02:43:31,42.805,6.029,4330,1995,197.103,60.276,13.287
2017-10-31T02:46:31,42.805,6.029,4330,1995,196.893,60.211,13.287
2017-10-31T02:49:31,42.805,6.029,4330,1995,196.881,60.207,13.287
2017-10-31T02:52:31,42.805,6.029,4330,1995,196.733,60.162,13.287
2017-10-31T02:55:31,42.805,6.029,4330,1995,196.798,60.182,13.287
2017-10-31T02:58:31,42.805,6.029,4330,1995,196.632,60.131,13.287
2017-10-31T03:01:31,42.805,6.029,4330,1995,196.602,60.122,13.287
2017-10-31T03:04:31,42.805,6.029,4330,1995,196.542,60.104,13.287
2017-10-31T03:07:31,42.805,6.029,4330,1995,196.714,60.156,13.287
2017-10-31T03:10:31,42.805,6.029,4330,1995,196.821,60.189,13.287
2017-10-31T03:13:31,42.805,6.029,4330,1995,196.852,60.199,13.287
2017-10-31T03:16:31,42.805,6.029,4330,1995,196.593,60.119,13.287
2017-10-31T03:19:31,42.805,6.029,4330,1995,196.769,60.173,13.287
2017-10-31T03:22:31,42.805,6.029,4330,1995,196.801,60.183,13.287
2017-10-31T03:25:31,42.805,6.029,4330,1995,196.663,60.141,13.287
2017-10-31T03:28:31,42.805,6.029,4330,1995,196.676,60.145,13.287
2017-10-31T03:31:31,42.805,6.029,4330,1995,196.594,60.119,13.287
2017-10-31T03:34:31,42.805,6.029,4330,1995,196.583,60.116,13.287
2017-10-31T03:37:31,42.805,6.029,4330,1995,196.532,60.101,13.287
2017-10-31T03:40:31,42.805,6.029,4330,1995,196.485,60.087,13.287
2017-10-31T03:43:31,42.805,6.029,4330,1995,196.364,60.049,13.287
2017-10-31T03:46:31,42.805,6.029,4330,1995,196.178,59.992,13.287
2017-10-31T03:49:31,42.805,6.029,4330,1995,196.174,59.991,13.287
2017-10-31T03:52:31,42.805,6.029,4330,1995,196.126,59.977,13.287
2017-10-31T03:55:31,42.805,6.029,4330,1995,196.125,59.977,13.287
2017-10-31T03:58:31,42.805,6.029,4330,1995,196.411,60.065,13.287
2017-10-31T04:01:31,42.805,6.029,4330,1995,196.287,60.026,13.287
2017-10-31T04:04:31,42.805,6.029,4330,1995,196.722,60.158,13.286
2017-10-31T04:07:31,42.805,6.029,4330,1995,196.497,60.090,13.287
2017-10-31T04:10:31,42.805,6.029,4330,1995,196.086,59.964,13.287
2017-10-31T04:13:31,42.805,6.029,4330,1995,196.609,60.124,13.287
2017-10-31T04:16:31,42.805,6.029,4330,1995,196.599,60.122,13.287
2017-10-31T04:19:31,42.805,6.029,4330,1995,196.443,60.074,13.287
2017-10-31T04:22:31,42.805,6.029,4330,1995,196.274,60.022,13.287
2017-10-31T04:25:31,42.805,6.029,4330,1995,196.050,59.953,13.287
2017-10-31T04:28:31,42.805,6.029,4330,1995,196.011,59.941,13.287
2017-10-31T04:31:31,42.805,6.029,4330,1995,195.989,59.935,13.287
2017-10-31T04:34:31,42.805,6.029,4330,1995,195.811,59.881,13.287
2017-10-31T04:37:31,42.805,6.029,4330,1995,196.049,59.953,13.287
2017-10-31T04:40:31,42.805,6.029,4330,1995,195.993,59.937,13.288
2017-10-31T04:43:31,42.805,6.029,4330,1995,195.840,59.890,13.287
2017-10-31T04:46:31,42.805,6.029,4330,1995,195.617,59.823,13.288
2017-10-31T04:49:31,42.805,6.029,4330,1995,195.582,59.812,13.288
2017-10-31T04:52:31,42.805,6.029,4330,1995,195.515,59.790,13.287
2017-10-31T04:55:31,42.805,6.029,4330,1995,196.002,59.940,13.288
2017-10-31T04:58:31,42.805,6.029,4330,1995,195.768,59.868,13.288
2017-10-31T05:01:31,42.805,6.029,4330,1995,195.468,59.777,13.288
2017-10-31T05:04:31,42.805,6.029,4330,1995,195.623,59.824,13.288
2017-10-31T05:07:31,42.805,6.029,4330,1995,195.562,59.806,13.288
2017-10-31T05:10:31,42.805,6.029,4330,1995,195.705,59.849,13.288
2017-10-31T05:13:31,42.805,6.029,4330,1995,195.501,59.788,13.289
2017-10-31T05:16:31,42.805,6.029,4330,1995,195.277,59.720,13.289
2017-10-31T05:19:31,42.805,6.029,4330,1995,195.067,59.654,13.288
2017-10-31T05:22:31,42.805,6.029,4330,1995,195.003,59.635,13.288
2017-10-31T05:25:31,42.805,6.029,4330,1995,195.317,59.733,13.290
2017-10-31T05:28:31,42.805,6.029,4330,1995,195.505,59.795,13.293
2017-10-31T05:31:31,42.805,6.029,4330,1995,195.436,59.768,13.289
2017-10-31T05:34:31,42.805,6.029,4330,1995,195.715,59.853,13.289
2017-10-31T05:37:31,42.805,6.029,4330,1995,195.529,59.796,13.289
2017-10-31T05:40:31,42.805,6.029,4330,1995,195.726,59.856,13.288
2017-10-31T05:43:31,42.805,6.029,4330,1995,195.695,59.847,13.289
2017-10-31T05:46:31,42.805,6.029,4330,1995,195.286,59.722,13.289
2017-10-31T05:49:31,42.805,6.029,4330,1995,195.359,59.744,13.288
2017-10-31T05:52:31,42.805,6.029,4330,1995,195.425,59.764,13.288
2017-10-31T05:55:31,42.805,6.029,4330,1995,195.602,59.817,13.288
2017-10-31T05:58:31,42.805,6.029,4330,1995,195.792,59.876,13.288
2017-10-31T06:01:31,42.805,6.029,4330,1995,195.649,59.833,13.289
2017-10-31T06:04:31,42.805,6.029,4330,1995,195.270,59.717,13.289
2017-10-31T06:07:31,42.805,6.029,4330,1995,195.107,59.667,13.288
2017-10-31T06:10:31,42.805,6.029,4330,1995,195.297,59.725,13.289
2017-10-31T06:13:31,42.805,6.029,4330,1995,195.251,59.711,13.288
2017-10-31T06:16:31,42.805,6.029,4330,1995,195.115,59.669,13.288
2017-10-31T06:19:31,42.805,6.029,4330,1995,195.237,59.707,13.289
2017-10-31T06:22:31,42.805,6.029,4330,1995,195.134,59.675,13.288
2017-10-31T06:25:31,42.805,6.029,4330,1995,194.936,59.618,13.291
2017-10-31T06:28:31,42.805,6.029,4330,1995,194.627,59.523,13.291
2017-10-31T06:31:31,42.805,6.029,4330,1995,194.451,59.467,13.289
2017-10-31T06:34:31,42.805,6.029,4330,1995,194.478,59.477,13.290
2017-10-31T06:37:31,42.805,6.029,4330,1995,194.618,59.517,13.288
2017-10-31T06:40:31,42.805,6.029,4330,1995,194.830,59.582,13.288
2017-10-31T06:43:31,42.805,6.029,4330,1995,194.969,59.624,13.288
2017-10-31T06:46:31,42.805,6.029,4330,1995,195.049,59.648,13.288
2017-10-31T06:49:31,42.805,6.029,4330,1995,195.112,59.667,13.287
2017-10-31T06:52:31,42.805,6.029,4330,1995,195.186,59.690,13.287
2017-10-31T06:55:31,42.805,6.029,4330,1995,195.290,59.721,13.287
2017-10-31T06:58:30,42.805,6.029,4330,1995,195.313,59.731,13.289
2017-10-31T07:01:30,42.805,6.029,4330,1995,195.284,59.720,13.288
2017-10-31T07:04:30,42.805,6.029,4330,1995,195.409,59.758,13.287
2017-10-31T07:07:30,42.805,6.029,4330,1995,195.352,59.740,13.287
2017-10-31T07:10:30,42.805,6.029,4330,1995,195.490,59.784,13.288
2017-10-31T07:13:30,42.805,6.029,4330,1995,195.439,59.768,13.288
2017-10-31T07:16:30,42.805,6.029,4330,1995,195.484,59.782,13.288
2017-10-31T07:19:30,42.805,6.029,4330,1995,195.710,59.851,13.288
2017-10-31T07:22:30,42.805,6.029,4330,1995,195.768,59.868,13.288
2017-10-31T07:25:30,42.805,6.029,4330,1995,195.827,59.887,13.288
2017-10-31T07:28:30,42.805,6.029,4330,1995,195.743,59.861,13.288
2017-10-31T07:31:30,42.805,6.029,4330,1995,195.828,59.889,13.290
2017-10-31T07:34:30,42.805,6.029,4330,1995,196.024,59.947,13.288
2017-10-31T07:37:30,42.805,6.029,4330,1995,196.235,60.012,13.289
2017-10-31T07:40:30,42.805,6.029,4330,1995,196.383,60.056,13.288
2017-10-31T07:43:30,42.805,6.029,4330,1995,196.422,60.068,13.287
2017-10-31T07:46:30,42.805,6.029,4330,1995,196.396,60.060,13.287
2017-10-31T07:49:30,42.805,6.029,4330,1995,196.243,60.013,13.287
2017-10-31T07:52:30,42.805,6.029,4330,1995,195.964,59.928,13.287
2017-10-31T07:55:30,42.805,6.029,4330,1995,196.002,59.939,13.287
2017-10-31T07:58:30,42.805,6.029,4330,1995,195.955,59.925,13.288
2017-10-31T08:01:30,42.805,6.029,4330,1995,195.834,59.887,13.287
2017-10-31T08:04:30,42.805,6.029,4330,1995,196.013,59.943,13.287
2017-10-31T08:07:30,42.805,6.029,4330,1995,196.070,59.960,13.287
2017-10-31T08:10:30,42.805,6.029,4330,1995,196.256,60.016,13.287
2017-10-31T08:13:30,42.805,6.029,4330,1995,196.357,60.047,13.287
2017-10-31T08:16:30,42.805,6.029,4330,1995,196.525,60.099,13.287
2017-10-31T08:19:30,42.805,6.029,4330,1995,196.662,60.141,13.287
2017-10-31T08:22:30,42.805,6.029,4330,1995,196.658,60.139,13.287
2017-10-31T08:25:30,42.805,6.029,4330,1995,196.692,60.151,13.288
2017-10-31T08:28:30,42.805,6.029,4330,1995,196.585,60.117,13.287
2017-10-31T08:31:30,42.805,6.029,4330,1995,196.618,60.127,13.287
2017-10-31T08:34:30,42.805,6.029,4330,1995,196.639,60.134,13.287
2017-10-31T08:37:30,42.805,6.029,4330,1995,196.630,60.131,13.287
2017-10-31T08:40:30,42.805,6.029,4330,1995,196.636,60.133,13.288
2017-10-31T08:43:30,42.805,6.029,4330,1995,196.724,60.160,13.287
2017-10-31T08:46:30,42.805,6.029,4330,1995,196.688,60.148,13.287
2017-10-31T08:49:30,42.805,6.029,4330,1995,196.727,60.160,13.287
2017-10-31T08:52:30,42.805,6.029,4330,1995,196.854,60.199,13.287
2017-10-31T08:55:30,42.805,6.029,4330,1995,196.846,60.197,13.287
2017-10-31T08:58:30,42.805,6.029,4330,1995,196.791,60.179,13.287
2017-10-31T09:01:30,42.805,6.029,4330,1995,196.814,60.187,13.287
2017-10-31T09:04:30,42.805,6.029,4330,1995,196.911,60.216,13.287
2017-10-31T09:07:30,42.805,6.029,4330,1995,196.924,60.220,13.287
2017-10-31T09:10:30,42.805,6.029,4330,1995,196.980,60.237,13.287
2017-10-31T09:13:30,42.805,6.029,4330,1995,196.930,60.222,13.287
2017-10-31T09:16:30,42.805,6.029,4330,1995,196.931,60.222,13.287
2017-10-31T09:19:30,42.805,6.029,4330,1995,196.832,60.192,13.287
2017-10-31T09:22:30,42.805,6.029,4330,1995,196.808,60.185,13.287
2017-10-31T09:25:30,42.805,6.029,4330,1995,196.750,60.167,13.287
2017-10-31T09:28:30,42.805,6.029,4330,1995,196.833,60.193,13.287
2017-10-31T09:31:30,42.805,6.029,4330,1995,196.967,60.233,13.287
2017-10-31T09:34:30,42.805,6.029,4330,1995,196.915,60.217,13.287
2017-10-31T09:37:30,42.805,6.029,4330,1995,196.991,60.241,13.287
2017-10-31T09:40:30,42.805,6.029,4330,1995,197.026,60.252,13.287
2017-10-31T09:43:30,42.805,6.029,4330,1995,196.793,60.180,13.286
2017-10-31T09:46:30,42.805,6.029,4330,1995,196.727,60.160,13.286
2017-10-31T09:49:30,42.805,6.029,4330,1995,196.469,60.081,13.286
2017-10-31T09:52:30,42.805,6.029,4330,1995,196.646,60.135,13.286
2017-10-31T09:55:30,42.805,6.029,4330,1995,196.757,60.169,13.286
2017-10-31T09:58:30,42.805,6.029,4330,1995,196.916,60.217,13.286
2017-10-31T10:01:30,42.805,6.029,4330,1995,196.830,60.191,13.286
2017-10-31T10:04:30,42.805,6.029,4330,1995,196.789,60.179,13.286
2017-10-31T10:07:30,42.805,6.029,4330,1995,196.928,60.221,13.287
2017-10-31T10:10:30,42.805,6.029,4330,1995,197.181,60.299,13.286
2017-10-31T10:13:30,42.805,6.029,4330,1995,196.946,60.227,13.286
2017-10-31T10:16:30,42.805,6.029,4330,1995,196.872,60.204,13.287
2017-10-31T10:19:30,42.805,6.029,4330,1995,197.151,60.289,13.286
2017-10-31T10:22:30,42.805,6.029,4330,1995,197.098,60.273,13.286
2017-10-31T10:25:30,42.805,6.029,4330,1995,196.960,60.231,13.286
2017-10-31T10:28:30,42.805,6.029,4330,1995,196.854,60.198,13.286
2017-10-31T10:31:30,42.805,6.029,4330,1995,197.079,60.267,13.286
2017-10-31T10:34:30,42.805,6.029,4330,1995,196.969,60.233,13.286
2017-10-31T10:37:30,42.805,6.029,4330,1995,196.769,60.172,13.286
2017-10-31T10:40:30,42.805,6.029,4330,1995,196.873,60.204,13.286
2017-10-31T10:43:30,42.805,6.029,4330,1995,196.910,60.215,13.286
2017-10-31T10:46:30,42.805,6.029,4330,1995,197.151,60.289,13.286
2017-10-31T10:49:30,42.805,6.029,4330,1995,197.181,60.298,13.286
2017-10-31T10:52:30,42.805,6.029,4330,1995,197.329,60.344,13.286
2017-10-31T10:55:30,42.805,6.029,4330,1995,197.282,60.330,13.287
2017-10-31T10:58:30,42.805,6.029,4330,1995,197.380,60.359,13.286
2017-10-31T11:01:30,42.805,6.029,4330,1995,197.333,60.345,13.287
2017-10-31T11:04:30,42.805,6.029,4330,1995,197.279,60.329,13.287
2017-10-31T11:07:30,42.805,6.029,4330,1995,197.064,60.263,13.286
2017-10-31T11:10:30,42.805,6.029,4330,1995,197.150,60.290,13.287
2017-10-31T11:13:30,42.805,6.029,4330,1995,197.179,60.298,13.286
2017-10-31T11:16:30,42.805,6.029,4330,1995,197.199,60.304,13.286
2017-10-31T11:19:30,42.805,6.029,4330,1995,197.190,60.301,13.286
2017-10-31T11:22:30,42.805,6.029,4330,1995,197.359,60.353,13.286
2017-10-31T11:25:30,42.805,6.029,4330,1995,197.266,60.325,13.286
2017-10-31T11:28:30,42.805,6.029,4330,1995,197.242,60.317,13.287
2017-10-31T11:31:30,42.805,6.029,4330,1995,197.354,60.351,13.286
2017-10-31T11:34:30,42.805,6.029,4330,1995,197.442,60.378,13.286
2017-10-31T11:37:30,42.805,6.029,4330,1995,197.452,60.381,13.286
2017-10-31T11:40:30,42.805,6.029,4330,1995,197.416,60.370,13.286
2017-10-31T11:43:30,42.805,6.029,4330,1995,197.492,60.394,13.287
2017-10-31T11:46:30,42.805,6.029,4330,1995,197.514,60.400,13.286
2017-10-31T11:49:30,42.805,6.029,4330,1995,197.741,60.470,13.286
2017-10-31T11:52:30,42.805,6.029,4330,1995,198.041,60.561,13.286
2017-10-31T11:55:30,42.805,6.029,4330,1995,198.004,60.550,13.286
2017-10-31T11:58:30,42.805,6.029,4330,1995,198.078,60.573,13.286
2017-10-31T12:01:30,42.805,6.029,4330,1995,197.984,60.544,13.286
2017-10-31T12:04:30,42.805,6.029,4330,1995,197.971,60.540,13.286
2017-10-31T12:07:30,42.805,6.029,4330,1995,197.982,60.543,13.286
2017-10-31T12:10:30,42.805,6.029,4330,1995,198.070,60.570,13.286
2017-10-31T12:13:30,42.805,6.029,4330,1995,198.218,60.616,13.286
2017-10-31T12:16:30,42.805,6.029,4330,1995,198.290,60.637,13.286
2017-10-31T12:19:30,42.805,6.029,4330,1995,198.237,60.622,13.287
2017-10-31T12:22:30,42.805,6.029,4330,1995,198.097,60.578,13.286
2017-10-31T12:25:30,42.805,6.029,4330,1995,198.140,60.592,13.286
2017-10-31T12:28:30,42.805,6.029,4330,1995,198.137,60.591,13.286
2017-10-31T12:31:30,42.805,6.029,4330,1995,198.102,60.580,13.286
2017-10-31T12:34:30,42.805,6.029,4330,1995,198.006,60.550,13.286
2017-10-31T12:37:30,42.805,6.029,4330,1995,198.059,60.567,13.286
2017-10-31T12:40:30,42.805,6.029,4330,1995,198.101,60.580,13.286
2017-10-31T12:43:30,42.805,6.029,4330,1995,198.145,60.593,13.286
2017-10-31T12:46:30,42.805,6.029,4330,1995,198.106,60.581,13.286
2017-10-31T12:49:30,42.805,6.029,4330,1995,198.140,60.592,13.286
2017-10-31T12:52:30,42.805,6.029,4330,1995,198.089,60.576,13.287
2017-10-31T12:55:30,42.805,6.029,4330,1995,198.004,60.550,13.286
2017-10-31T12:58:30,42.805,6.029,4330,1995,197.914,60.522,13.286
2017-10-31T13:01:30,42.805,6.029,4330,1995,197.936,60.529,13.286
2017-10-31T13:04:30,42.805,6.029,4330,1995,197.994,60.547,13.286
2017-10-31T13:07:30,42.805,6.029,4330,1995,198.030,60.558,13.286
2017-10-31T13:10:30,42.805,6.029,4330,1995,198.050,60.564,13.286
2017-10-31T13:13:30,42.805,6.029,4330,1995,198.089,60.576,13.286
2017-10-31T13:16:30,42.805,6.029,4330,1995,198.050,60.564,13.286
2017-10-31T13:19:30,42.805,6.029,4330,1995,198.108,60.582,13.286
2017-10-31T13:22:30,42.805,6.029,4330,1995,197.961,60.537,13.287
2017-10-31T13:25:30,42.805,6.029,4330,1995,198.011,60.552,13.286
2017-10-31T13:28:30,42.805,6.029,4330,1995,197.879,60.512,13.286
2017-10-31T13:31:30,42.805,6.029,4330,1995,197.985,60.545,13.287
2017-10-31T13:34:30,42.805,6.029,4330,1995,198.044,60.562,13.286
2017-10-31T13:37:30,42.805,6.029,4330,1995,197.888,60.515,13.286
2017-10-31T13:40:30,42.805,6.029,4330,1995,197.867,60.509,13.287
2017-10-31T13:43:30,42.805,6.029,4330,1995,197.851,60.503,13.286
2017-10-31T13:46:30,42.805,6.029,4330,1995,197.772,60.479,13.286
2017-10-31T13:49:30,42.805,6.029,4330,1995,197.855,60.505,13.286
2017-10-31T13:52:30,42.805,6.029,4330,1995,197.918,60.525,13.287
2017-10-31T13:55:30,42.805,6.029,4330,1995,197.927,60.527,13.287
2017-10-31T13:58:30,42.805,6.029,4330,1995,197.907,60.521,13.287
2017-10-31T14:01:30,42.805,6.029,4330,1995,198.019,60.555,13.286
2017-10-31T14:04:30,42.805,6.029,4330,1995,197.882,60.514,13.287
2017-10-31T14:07:30,42.805,6.029,4330,1995,197.851,60.504,13.287
2017-10-31T14:10:30,42.805,6.029,4330,1995,197.930,60.528,13.287
2017-10-31T14:13:30,42.805,6.029,4330,1995,197.808,60.491,13.287
2017-10-31T14:16:30,42.805,6.029,4330,1995,197.610,60.430,13.287
2017-10-31T14:19:30,42.805,6.029,4330,1995,197.526,60.404,13.287
2017-10-31T14:22:30,42.805,6.029,4330,1995,197.631,60.437,13.287
2017-10-31T14:25:30,42.805,6.029,4330,1995,197.554,60.413,13.287
2017-10-31T14:28:30,42.805,6.029,4330,1995,197.572,60.421,13.288
2017-10-31T14:31:30,42.805,6.029,4330,1995,197.657,60.444,13.287
2017-10-31T14:34:30,42.805,6.029,4330,1995,197.761,60.476,13.287
2017-10-31T14:37:30,42.805,6.029,4330,1995,197.632,60.437,13.287
2017-10-31T14:40:30,42.805,6.029,4330,1995,197.721,60.464,13.286
2017-10-31T14:43:30,42.805,6.029,4330,1995,197.611,60.430,13.287
2017-10-31T14:46:30,42.805,6.029,4330,1995,197.549,60.411,13.287
2017-10-31T14:49:30,42.805,6.029,4330,1995,197.785,60.484,13.287
2017-10-31T14:52:30,42.805,6.029,4330,1995,197.763,60.478,13.287
2017-10-31T14:55:30,42.805,6.029,4330,1995,197.824,60.496,13.287
2017-10-31T14:58:30,42.805,6.029,4330,1995,197.945,60.532,13.286
2017-10-31T15:01:30,42.805,6.029,4330,1995,197.877,60.512,13.287
2017-10-31T15:04:30,42.805,6.029,4330,1995,198.131,60.589,13.286
2017-10-31T15:07:30,42.805,6.029,4330,1995,198.053,60.565,13.286
2017-10-31T15:10:30,42.805,6.029,4330,1995,198.024,60.558,13.287
2017-10-31T15:13:30,42.805,6.029,4330,1995,198.054,60.566,13.286
2017-10-31T15:16:30,42.805,6.029,4330,1995,197.946,60.534,13.287
2017-10-31T15:19:30,42.805,6.029,4330,1995,197.947,60.532,13.286
2017-10-31T15:22:30,42.805,6.029,4330,1995,197.963,60.538,13.287
2017-10-31T15:25:30,42.805,6.029,4330,1995,198.053,60.565,13.286
2017-10-31T15:28:30,42.805,6.029,4330,1995,198.123,60.590,13.289
2017-10-31T15:31:30,42.805,6.029,4330,1995,197.911,60.522,13.287
2017-10-31T15:34:30,42.805,6.029,4330,1995,198.219,60.619,13.288
2017-10-31T15:37:30,42.805,6.029,4330,1995,198.141,60.592,13.286
2017-10-31T15:40:30,42.805,6.029,4330,1995,198.248,60.625,13.286
2017-10-31T15:43:30,42.805,6.029,4330,1995,198.349,60.656,13.286
2017-10-31T15:46:30,42.805,6.029,4330,1995,198.233,60.620,13.286
2017-10-31T15:49:30,42.805,6.029,4330,1995,198.103,60.581,13.287
2017-10-31T15:52:30,42.805,6.029,4330,1995,198.264,60.630,13.287
2017-10-31T15:55:30,42.805,6.029,4330,1995,198.029,60.558,13.287
2017-10-31T15:58:30,42.805,6.029,4330,1995,197.989,60.546,13.287
2017-10-31T16:01:30,42.805,6.029,4330,1995,198.124,60.587,13.287
2017-10-31T16:04:30,42.805,6.029,4330,1995,198.203,60.612,13.287
2017-10-31T16:07:30,42.805,6.029,4330,1995,198.105,60.581,13.287
2017-10-31T16:10:30,42.805,6.029,4330,1995,197.964,60.538,13.286
2017-10-31T16:13:30,42.805,6.029,4330,1995,197.847,60.504,13.288
2017-10-31T16:16:30,42.805,6.029,4330,1995,198.041,60.563,13.288
2017-10-31T16:19:30,42.805,6.029,4330,1995,197.900,60.519,13.287
2017-10-31T16:22:30,42.805,6.029,4330,1995,197.818,60.493,13.287
2017-10-31T16:25:30,42.805,6.029,4330,1995,197.890,60.517,13.287
2017-10-31T16:28:30,42.805,6.029,4330,1995,197.834,60.499,13.287
2017-10-31T16:31:30,42.805,6.029,4330,1995,197.838,60.500,13.287
2017-10-31T16:34:30,42.805,6.029,4330,1995,198.134,60.590,13.286
2017-10-31T16:37:30,42.805,6.029,4330,1995,197.905,60.521,13.287
2017-10-31T16:40:30,42.805,6.029,4330,1995,197.928,60.527,13.287
2017-10-31T16:43:30,42.805,6.029,4330,1995,198.023,60.557,13.287
2017-10-31T16:46:30,42.805,6.029,4330,1995,197.826,60.496,13.287
2017-10-31T16:49:30,42.805,6.029,4330,1995,197.937,60.533,13.289
2017-10-31T16:52:30,42.805,6.029,4330,1995,197.915,60.524,13.287
2017-10-31T16:55:30,42.805,6.029,4330,1995,197.978,60.543,13.287
2017-10-31T16:58:30,42.805,6.029,4330,1995,197.826,60.497,13.287
2017-10-31T17:01:30,42.805,6.029,4330,1995,197.841,60.500,13.286
2017-10-31T17:04:30,42.805,6.029,4330,1995,197.714,60.462,13.287
2017-10-31T17:07:30,42.805,6.029,4330,1995,197.657,60.445,13.287
2017-10-31T17:10:30,42.805,6.029,4330,1995,197.704,60.460,13.287
2017-10-31T17:13:30,42.805,6.029,4330,1995,197.851,60.504,13.287
2017-10-31T17:16:30,42.805,6.029,4330,1995,197.745,60.472,13.287
2017-10-31T17:19:30,42.805,6.029,4330,1995,197.679,60.451,13.286
2017-10-31T17:22:30,42.805,6.029,4330,1995,197.570,60.418,13.287
2017-10-31T17:25:30,42.805,6.029,4330,1995,197.493,60.394,13.287
2017-10-31T17:28:30,42.805,6.029,4330,1995,197.376,60.359,13.287
2017-10-31T17:31:30,42.805,6.029,4330,1995,197.554,60.414,13.287
2017-10-31T17:34:30,42.805,6.029,4330,1995,197.451,60.382,13.287
2017-10-31T17:37:30,42.805,6.029,4330,1995,197.374,60.358,13.287
2017-10-31T17:40:30,42.805,6.029,4330,1995,197.549,60.412,13.287
2017-10-31T17:43:30,42.805,6.029,4330,1995,197.563,60.416,13.287
2017-10-31T17:46:30,42.805,6.029,4330,1995,197.565,60.418,13.288
2017-10-31T17:49:30,42.805,6.029,4330,1995,197.369,60.357,13.287
2017-10-31T17:52:30,42.805,6.029,4330,1995,197.418,60.372,13.287
2017-10-31T17:55:30,42.805,6.029,4330,1995,197.697,60.459,13.288
2017-10-31T17:58:30,42.805,6.029,4330,1995,197.442,60.380,13.288
2017-10-31T18:01:30,42.805,6.029,4330,1995,197.246,60.322,13.289
2017-10-31T18:04:30,42.805,6.029,4330,1995,196.856,60.203,13.289
2017-10-31T18:07:30,42.805,6.029,4330,1995,196.983,60.239,13.288